[[{"header":{"parameterUnit":"m.s-1","parameterCategory":1,"la1":30.2991,"la2":30.254,"lo1":-89.0895,"lo2":-89.0444,"dy":0.0017,"dx":0.0017,"nx":28,"ny":28,"refTime":"2024-06-07T09:00:00:Z","depth":0,"parameterNumber":2,"parameterNumberName":"U-component_of_WINDS"},"data":[0,0,0,0,0,0,0,0,0,0,0,0,0,0,0,0,0,0,0,0,0,0,0,0,0,0,0,0,0,0,0,0,0,0,0,0,0,0,0,0,0,0,0,0,0,0,0,0,0,0,0,0,0,0,0,0,0,0,-1.1991,-1.1991,0,-1.1952,-1.1952,-1.1951,-1.1962,-1.1963,-1.1963,-1.1964,-1.1922,-1.192,-1.1918,0,0,0,0,0,0,0,0,0,0,0,0,0,-1.2071,-1.207,-1.1991,-1.1991,-1.199,-1.1952,-1.1952,-1.1951,-1.1962,-1.1963,-1.1964,-1.1965,-1.1923,-1.192,-1.1918,0,0,0,0,0,0,0,0,0,0,0,0,0,-1.2035,-1.2069,-1.1991,-1.1991,-1.1991,-1.1952,-1.1952,-1.1951,-1.1962,-1.1963,-1.1964,-1.1965,-1.1923,-1.1921,-1.1918,-1.1877,0,0,-1.1909,-1.1908,0,0,0,0,0,0,0,0,-1.2037,-1.2032,-1.1991,-1.1991,-1.199,-1.1963,-1.1965,-1.1926,-1.1961,-1.1972,-1.1964,-1.1966,-1.1935,-1.1931,-1.1921,-1.1875,-1.1873,-1.1909,-1.1907,-1.1906,-1.1905,0,0,0,0,0,0,0,-1.2039,-1.2033,-1.1976,-1.1991,-1.199,-1.1992,-1.1988,-1.1957,-1.1947,-1.1972,-1.1972,-1.1968,-1.1935,-1.1924,-1.192,-1.1873,-1.1909,-1.1907,-1.1905,-1.1904,-1.1788,-1.1786,0,0,0,0,0,0,-1.2043,-1.2035,-1.1977,-1.1975,-1.2017,-1.1989,-1.1985,-1.1971,-1.1948,-1.1945,-1.1967,-1.1968,-1.1928,-1.1923,-1.1919,-1.1866,-1.1906,-1.1904,-1.1902,-1.1789,-1.1787,-1.1786,0,0,0,0,0,0,-1.2044,-1.2037,-1.1978,-1.2005,-1.1998,-1.1987,-1.197,-1.1969,-1.1958,-1.1944,-1.1942,-1.1958,-1.1929,-1.1923,-1.1887,-1.1865,-1.1902,-1.19,-1.1791,-1.1789,-1.1787,-1.1763,0,0,0,0,0,0,-1.2047,-1.2038,-1.2023,-1.2005,-1.1996,-1.1948,-1.1969,-1.1968,-1.1954,-1.1956,-1.1935,-1.1933,-1.1929,-1.1891,-1.1884,-1.1862,-1.1898,-1.1793,-1.179,-1.1787,-1.1766,-1.1761,-1.1756,0,0,0,0,0,-1.2049,-1.2018,-1.2022,-1.2015,-1.1978,-1.1947,-1.1942,-1.1939,-1.1952,-1.1936,-1.1927,-1.1933,-1.1869,-1.1887,-1.1879,-1.1856,-1.1794,-1.1791,-1.1787,-1.1768,-1.1762,-1.1756,0,0,0,0,0,0,-1.2034,-1.2016,-1.202,-1.1983,-1.1966,-1.1949,-1.1929,-1.1933,-1.1912,-1.1914,-1.1911,-1.1907,-1.1869,-1.186,-1.188,-1.1814,-1.1833,-1.1828,-1.1821,-1.1815,-1.181,-1.1812,-1.1895,0,0,0,0,0,-1.2026,-1.2004,-1.1989,-1.1957,-1.1949,-1.194,-1.1927,-1.1926,-1.1909,-1.1901,-1.1889,-1.1871,-1.1847,-1.1831,-1.1808,-1.1766,-1.1759,-1.1746,-1.1741,-1.1737,-1.1732,-1.1705,-1.1698,-1.1775,-1.1775,-1.1775,0,0,-1.201,-1.1997,-1.1983,-1.1954,-1.1941,-1.1916,-1.1934,-1.1908,-1.1888,-1.1897,-1.1862,-1.1852,-1.1832,-1.1792,-1.1774,-1.1783,-1.1709,-1.1733,-1.173,-1.1727,-1.1701,-1.1694,-1.1687,-1.1773,-1.1774,-1.1774,0,0,-1.1967,-1.1957,-1.1927,-1.1914,-1.1894,-1.1889,-1.1882,-1.1863,-1.1857,-1.1822,-1.1827,-1.1804,-1.1763,-1.1747,-1.1734,-1.1683,-1.1687,-1.1676,-1.1649,-1.1623,-1.1617,-1.1612,-1.159,-1.1583,-1.1671,-1.1671,-1.1671,0,-1.1949,-1.1912,-1.1912,-1.1884,-1.1869,-1.1877,-1.1845,-1.1833,-1.1806,-1.1795,-1.1807,-1.1753,-1.174,-1.1695,-1.1682,-1.1672,-1.1662,-1.1677,-1.1618,-1.1613,-1.1608,-1.1587,-1.1579,-1.167,-1.167,-1.167,-1.167,0,-1.1889,-1.1863,-1.1842,-1.1816,-1.18,-1.1771,-1.1764,-1.1747,-1.1748,-1.174,-1.1702,-1.1687,-1.166,-1.165,-1.165,-1.1603,-1.1609,-1.162,-1.1638,-1.1599,-1.1579,-1.1571,-1.1668,-1.1668,-1.1669,-1.1669,0,0,-1.1834,-1.1808,-1.1799,-1.1786,-1.1765,-1.1744,-1.1715,-1.1688,-1.1672,-1.1654,-1.1627,-1.1592,-1.16,-1.1585,-1.1584,-1.1562,-1.1518,-1.1574,-1.1573,-1.1561,-1.1461,-1.1451,-1.1442,-1.1522,-1.152,-1.1519,-1.1462,0,-1.1786,-1.1734,-1.1732,-1.1684,-1.1659,-1.1665,-1.1639,-1.1622,-1.1614,-1.159,-1.1582,-1.1555,-1.157,-1.156,-1.1539,-1.1528,-1.1497,-1.1532,-1.1494,-1.1492,-1.1495,-1.1432,-1.1422,-1.1369,-1.1454,-1.1453,-1.1452,0,-1.1724,-1.1703,-1.1652,-1.1632,-1.1621,-1.1597,-1.1571,-1.155,-1.153,-1.1525,-1.1508,-1.1509,-1.1477,-1.1499,-1.1452,-1.1476,-1.146,-1.1452,-1.145,-1.1443,-1.1467,-1.1421,-1.1352,-1.1342,-1.1441,-1.1442,-1.1443,0,-1.1684,-1.1644,-1.1607,-1.1596,-1.1573,-1.1555,-1.1545,-1.1526,-1.1509,-1.1487,-1.1475,-1.145,-1.1434,-1.1413,-1.1407,-1.1424,-1.1359,-1.1381,-1.1352,-1.1352,-1.1335,-1.1336,-1.1259,-1.1331,-1.1331,-1.1331,-1.1332,0,-1.1629,-1.1597,-1.1589,-1.1566,-1.1529,-1.1527,-1.149,-1.148,-1.1463,-1.1437,-1.1442,-1.1417,-1.1412,-1.1386,-1.1381,-1.1341,-1.1335,-1.1328,-1.1327,-1.1326,-1.1326,-1.1313,-1.1315,-1.1329,-1.133,-1.133,-1.133,0,-1.1578,-1.1571,-1.1531,-1.1512,-1.1507,-1.148,-1.1463,-1.144,-1.1433,-1.1399,-1.1391,-1.1379,-1.1348,-1.1341,-1.1304,-1.13,-1.1252,-1.1256,-1.1258,-1.1257,-1.1227,-1.1228,-1.1136,-1.1122,-1.1207,-1.1206,-1.1206,0,-1.1541,-1.1517,-1.1494,-1.1477,-1.1466,-1.1439,-1.1422,-1.1418,-1.14,-1.1374,-1.1353,-1.1323,-1.1298,-1.1248,-1.1235,-1.1206,-1.1207,-1.1177,-1.1202,-1.1201,-1.1202,-1.1202,-1.1198,-1.1171,-1.117,-1.1169,-1.1169,0,-1.1476,-1.1474,-1.1449,-1.1423,-1.1402,-1.1381,-1.1361,-1.1347,-1.134,-1.1319,-1.1287,-1.1268,-1.123,-1.1198,-1.1169,-1.1156,-1.1159,-1.1161,-1.1152,-1.1149,-1.115,-1.1145,-1.1241,-1.1162,-1.1163,-1.1163,-1.1164,-1.1164,-1.1429,-1.1406,-1.1386,-1.1357,-1.1342,-1.1323,-1.1299,-1.1289,-1.1263,-1.1231,-1.1231,-1.1195,-1.1174,-1.1135,-1.112,-1.1091,-1.11,-1.1088,-1.1084,-1.108,-1.1075,-1.1157,-1.1086,-1.1087,-1.1087,-1.1087,-1.1087,0,-1.1361,-1.1348,-1.1322,-1.1293,-1.127,-1.1278,-1.1255,-1.1235,-1.1204,-1.1184,-1.1159,-1.1121,-1.109,-1.1075,-1.1044,-1.1023,-1.1024,-1.1015,-1.1014,-1.101,-1.1071,-1.1081,-1.1014,-1.1014,-1.1014,-1.1014,-1.1014,-1.1014,-1.1322,-1.1282,-1.1278,-1.1229,-1.1217,-1.1182,-1.1168,-1.1149,-1.1133,-1.1091,-1.1065,-1.1056,-1.1036,-1.1004,-1.0975,-1.0971,-1.0957,-1.0946,-1.0943,-1.0999,-1.1007,-1.1014,-1.1022,-1.0945,-1.0944,-1.0884,-1.0883,-1.0883]},{"header":{"parameterUnit":"m.s-1","parameterCategory":1,"la1":30.2991,"la2":30.254,"lo1":-89.0895,"lo2":-89.0444,"dy":0.0017,"dx":0.0017,"nx":28,"ny":28,"refTime":"2024-06-07T09:00:00:Z","depth":0,"parameterNumber":3,"parameterNumberName":"V-component_of_WINDS"},"data":[0,0,0,0,0,0,0,0,0,0,0,0,0,0,0,0,0,0,0,0,0,0,0,0,0,0,0,0,0,0,0,0,0,0,0,0,0,0,0,0,0,0,0,0,0,0,0,0,0,0,0,0,0,0,0,0,0,0,-1.5436,-1.5436,0,-1.5418,-1.5418,-1.5418,-1.5431,-1.5431,-1.5432,-1.5432,-1.5412,-1.5411,-1.541,0,0,0,0,0,0,0,0,0,0,0,0,0,-1.5479,-1.5478,-1.5436,-1.5436,-1.5436,-1.5418,-1.5418,-1.5418,-1.5431,-1.5431,-1.5432,-1.5433,-1.5412,-1.5411,-1.541,0,0,0,0,0,0,0,0,0,0,0,0,0,-1.546,-1.5478,-1.5436,-1.544,-1.544,-1.5418,-1.5418,-1.5418,-1.543,-1.5431,-1.5432,-1.5433,-1.5413,-1.5411,-1.5409,-1.5382,0,0,-1.5404,-1.5404,0,0,0,0,0,0,0,0,-1.5461,-1.5459,-1.544,-1.544,-1.544,-1.5428,-1.5426,-1.5406,-1.543,-1.5434,-1.5432,-1.5433,-1.5416,-1.5414,-1.5409,-1.5381,-1.538,-1.5404,-1.5403,-1.5403,-1.5402,0,0,0,0,0,0,0,-1.5463,-1.546,-1.5429,-1.5439,-1.5439,-1.5442,-1.544,-1.5422,-1.542,-1.5434,-1.5435,-1.5433,-1.5416,-1.5411,-1.5409,-1.538,-1.5404,-1.5403,-1.5402,-1.5401,-1.5328,-1.5327,0,0,0,0,0,0,-1.5464,-1.5461,-1.543,-1.5429,-1.5453,-1.544,-1.5439,-1.5431,-1.5421,-1.542,-1.5432,-1.5433,-1.5413,-1.5411,-1.5408,-1.5374,-1.5403,-1.5401,-1.54,-1.5329,-1.5327,-1.5326,0,0,0,0,0,0,-1.5465,-1.5461,-1.543,-1.5445,-1.5441,-1.5439,-1.543,-1.543,-1.5424,-1.5419,-1.5419,-1.5426,-1.5413,-1.541,-1.5388,-1.5373,-1.54,-1.5399,-1.533,-1.5328,-1.5327,-1.5307,0,0,0,0,0,0,-1.5466,-1.5461,-1.5451,-1.5445,-1.544,-1.5412,-1.5429,-1.5429,-1.5422,-1.5423,-1.5414,-1.5413,-1.5414,-1.5391,-1.5387,-1.5372,-1.5398,-1.5331,-1.5329,-1.5327,-1.5309,-1.5305,-1.5301,0,0,0,0,0,-1.5467,-1.5446,-1.5451,-1.5447,-1.5428,-1.5411,-1.5408,-1.541,-1.542,-1.541,-1.5407,-1.5413,-1.5376,-1.5388,-1.5384,-1.5368,-1.5332,-1.533,-1.5327,-1.531,-1.5305,-1.5301,0,0,0,0,0,0,-1.5451,-1.5445,-1.545,-1.5427,-1.5419,-1.5413,-1.54,-1.5405,-1.5394,-1.5396,-1.5398,-1.5396,-1.5373,-1.5369,-1.5382,-1.5341,-1.5356,-1.5352,-1.5344,-1.5339,-1.5336,-1.5336,-1.5396,0,0,0,0,0,-1.5445,-1.5432,-1.5428,-1.5407,-1.5403,-1.5402,-1.5395,-1.5397,-1.5389,-1.5385,-1.5381,-1.5372,-1.5358,-1.5349,-1.5336,-1.5309,-1.5306,-1.5296,-1.5292,-1.5289,-1.5286,-1.5269,-1.5264,-1.5319,-1.5319,-1.5319,0,0,-1.5431,-1.5427,-1.5418,-1.5403,-1.5398,-1.5383,-1.5399,-1.5384,-1.5372,-1.5383,-1.5361,-1.5358,-1.5348,-1.5323,-1.5312,-1.5319,-1.527,-1.5287,-1.5284,-1.5282,-1.5266,-1.5261,-1.5257,-1.5317,-1.5318,-1.5318,0,0,-1.5398,-1.5395,-1.5376,-1.537,-1.5362,-1.5362,-1.5357,-1.535,-1.5348,-1.5327,-1.5335,-1.5321,-1.5298,-1.529,-1.5283,-1.5248,-1.5253,-1.5244,-1.5224,-1.5208,-1.5204,-1.52,-1.5185,-1.518,-1.5241,-1.5241,-1.5241,0,-1.5382,-1.5361,-1.5366,-1.5349,-1.5342,-1.5352,-1.5332,-1.5327,-1.5314,-1.5308,-1.5317,-1.5287,-1.5282,-1.5254,-1.5245,-1.524,-1.5234,-1.5244,-1.5204,-1.52,-1.5197,-1.5183,-1.5177,-1.524,-1.524,-1.524,-1.524,0,-1.5341,-1.5326,-1.5312,-1.53,-1.5292,-1.5274,-1.5275,-1.5265,-1.5269,-1.5267,-1.5245,-1.5239,-1.5224,-1.5218,-1.5221,-1.5191,-1.5195,-1.5204,-1.5218,-1.519,-1.5177,-1.5172,-1.5238,-1.5239,-1.5239,-1.5239,0,0,-1.5295,-1.5287,-1.5281,-1.5275,-1.5267,-1.5255,-1.5238,-1.5224,-1.5215,-1.5207,-1.5191,-1.5171,-1.5179,-1.5171,-1.5174,-1.516,-1.513,-1.517,-1.517,-1.5161,-1.5093,-1.5085,-1.5078,-1.5134,-1.5133,-1.5133,-1.5093,0,-1.526,-1.523,-1.5234,-1.5204,-1.5189,-1.5199,-1.5184,-1.5176,-1.5175,-1.5162,-1.516,-1.5145,-1.5158,-1.5153,-1.514,-1.5136,-1.5116,-1.5139,-1.5117,-1.5116,-1.5117,-1.5072,-1.5063,-1.5026,-1.5088,-1.5087,-1.5087,0,-1.5215,-1.5205,-1.5174,-1.5167,-1.5161,-1.5147,-1.5135,-1.5123,-1.5114,-1.5114,-1.5106,-1.511,-1.5091,-1.5108,-1.5081,-1.5097,-1.5089,-1.5085,-1.5084,-1.508,-1.5098,-1.5064,-1.5014,-1.5008,-1.5079,-1.508,-1.508,0,-1.5182,-1.5161,-1.514,-1.5135,-1.5127,-1.5116,-1.5112,-1.5105,-1.5096,-1.5086,-1.508,-1.5067,-1.5059,-1.5048,-1.5049,-1.5061,-1.502,-1.5038,-1.5018,-1.5018,-1.5006,-1.5007,-1.4952,-1.5006,-1.5006,-1.5006,-1.5006,0,-1.5141,-1.5121,-1.5124,-1.5111,-1.5088,-1.5093,-1.507,-1.5068,-1.5061,-1.5046,-1.5055,-1.504,-1.5043,-1.5029,-1.503,-1.5006,-1.5003,-1.5001,-1.5,-1.4998,-1.4998,-1.4991,-1.4992,-1.5004,-1.5005,-1.5005,-1.5005,0,-1.5099,-1.5101,-1.5077,-1.5072,-1.5071,-1.5054,-1.5049,-1.5036,-1.5035,-1.5016,-1.5012,-1.5011,-1.4994,-1.4995,-1.4976,-1.4976,-1.4946,-1.495,-1.4949,-1.4948,-1.4927,-1.4928,-1.4864,-1.4855,-1.4917,-1.4916,-1.4916,0,-1.5072,-1.5056,-1.505,-1.5041,-1.5036,-1.5022,-1.5013,-1.5017,-1.5008,-1.4997,-1.4984,-1.4969,-1.4956,-1.4929,-1.4926,-1.4911,-1.4913,-1.4892,-1.4911,-1.4908,-1.4909,-1.4909,-1.4907,-1.4887,-1.4886,-1.4886,-1.4885,0,-1.5022,-1.5023,-1.5011,-1.4998,-1.4988,-1.4978,-1.4969,-1.4961,-1.4964,-1.4953,-1.4936,-1.4927,-1.4908,-1.4891,-1.4877,-1.4872,-1.4878,-1.488,-1.4874,-1.487,-1.4868,-1.4866,-1.4935,-1.488,-1.4881,-1.4881,-1.4882,-1.4882,-1.4984,-1.497,-1.4963,-1.4949,-1.4943,-1.4934,-1.4921,-1.4919,-1.4906,-1.489,-1.4894,-1.4875,-1.4866,-1.4848,-1.4842,-1.4826,-1.4834,-1.4826,-1.4823,-1.482,-1.4817,-1.4874,-1.4824,-1.4824,-1.4824,-1.4825,-1.4825,0,-1.4932,-1.4928,-1.4915,-1.4903,-1.4891,-1.49,-1.489,-1.4879,-1.4863,-1.4855,-1.4842,-1.4823,-1.4807,-1.4803,-1.4787,-1.4775,-1.4778,-1.4771,-1.477,-1.4768,-1.4812,-1.4818,-1.4769,-1.4769,-1.4769,-1.4769,-1.4769,-1.4769,-1.4903,-1.488,-1.4881,-1.4855,-1.4851,-1.4832,-1.4826,-1.4818,-1.4811,-1.4789,-1.4776,-1.4774,-1.4767,-1.4751,-1.4737,-1.4736,-1.4728,-1.472,-1.472,-1.476,-1.4766,-1.4771,-1.4776,-1.4719,-1.4719,-1.4677,-1.4676,-1.4676]}]]